Location: Lombard
(41.8800°N, 88.0080°W)
Time: 03:22:27
(UTC-06:00)

Transit 2A Rocket - Visible Passes

Search period start: 31 January 2023 00:00
Search period end: 10 February 2023 00:00
Orbit: 585 x 915 km, 66.7° (Epoch: 30 January)

Date Brightness Start Highest point End Pass type
(mag) Time Alt. Az. Time Alt. Az. Time Alt. Az.
03 Feb 7.6 06:23:25 10° N 06:27:14 17° NE 06:31:05 10° ENE visible
04 Feb 7.7 05:41:22 10° N 05:43:34 12° NNE 05:45:46 10° NE visible
06 Feb 7.5 05:56:25 10° N 06:00:54 21° NE 06:05:26 10° E visible
07 Feb 7.7 05:14:01 10° N 05:17:18 15° NE 05:20:36 10° ENE visible
08 Feb 8.0 04:32:35 10° NNE 04:33:33 10° NNE 04:34:33 10° NE visible
08 Feb 6.7 06:12:16 10° NNW 06:17:54 39° NE 06:23:33 10° ESE visible
09 Feb 7.2 05:29:30 10° N 05:34:31 26° NE 05:39:34 10° E visible
